Hourly Weather Roundup
Issued by NWS Central Illinois

Home | Current Version | Previous Version | Text Only | Print | Product List | Glossary On
Versions: 1 2 3 4 5 6 7 8 9 10 11 12 13 14 15 16 17 18 19 20 21 22 23 24 25 26 27 28 29 30 31 32 33 34 35 36 37 38 39 40 41 42 43 44 45 46 47 48 49 50
000
NZUS43 KILX 262310
HWRILX

Area Weather Roundup
National Weather Service Lincoln IL
600 PM CDT MON JUN 26 2017

NOTE:  "FAIR" indicates few or no clouds below 12,000 feet, with
       no sigificant weather and/or obstructions to visibility.


CITY           SKY/WX    TMP DP  RH WIND       PRES   REMARKS
Bloomington    LGT RAIN  58  52  80 W8        30.10F
Champaign      CLOUDY    63  48  58 NW14      30.10R
Danville       HVY RAIN  60  53  77 NW21      30.08R
Decatur        PTSUNNY   64  48  56 N14       30.11S
Effingham      PTSUNNY   69  50  49 W3        30.12F
Flora          CLOUDY    71  48  44 E3        30.09F
Galesburg      CLOUDY    65  54  67 W6        30.09F THUNDER
Jacksonville   MOSUNNY   71  49  46 SW12      30.10S
Lacon          CLOUDY    67  50  55 W10       30.06F
Lawrenceville  CLOUDY    69  49  48 NW8       30.12S
Litchfield     PTSUNNY   67  52  59 CALM      30.11F
$$


CITY           SKY/WX    TMP DP  RH WIND       PRES   REMARKS
Lincoln        CLOUDY    64  53  66 N12       30.11S
Macomb         CLOUDY    64  50  59 NE16      30.11S
Mattoon        CLOUDY    69  53  56 W9        30.10F
Mt Carmel AP   CLOUDY    68  49  49 N7        30.12S
Olney-Noble AP CLOUDY    68  49  50 N3        30.11F
Paris AP       MOSUNNY   70  51  51 W18       30.10S
Peoria         PTSUNNY   62  58  86 W3        30.09F
Pontiac        CLOUDY    64  56  75 NW13      30.10R
Rantoul        LGT RAIN  61  52  72 W16G28    30.10F
Robinson       CLOUDY    66  51  57 NW5       30.13R
Springfield    SUNNY     74  49  41 W14       30.10F
Taylorville    PTSUNNY   71  50  46 W7        30.10F
$$

...REGIONAL REPORTS...


CITY           SKY/WX    TMP DP  RH WIND       PRES   REMARKS
Chicago O`Hare PTSUNNY   71  41  33 NW21G29   30.02S
Kankakee       RAIN      67  52  57 CALM      30.05S
Moline         MOSUNNY   73  42  32 NW12      30.06S
Mount Sterling MOSUNNY   72  50  46 SW13G18   30.09F
Mount Vernon   CLOUDY    70  52  52 N6        30.12R
Pittsfield     SUNNY     71  53  53 SW8       30.11F
Quincy         SUNNY     72  50  45 SW8       30.09F
Rockford       MOSUNNY   69  43  38 N14       30.07R
$$


CITY           SKY/WX    TMP DP  RH WIND       PRES   REMARKS
Burlington     RAIN      62  50  64 N9G23     30.09R
Cedar Rapids   MOSUNNY   71  44  37 N12       30.08F
Des Moines     MOSUNNY   74  46  36 NE12      30.10S
Kirksville     SUNNY     72  54  53 W7        30.10F
Ottumwa        MOSUNNY   73  51  46 NW12      30.08F
St Louis       CLOUDY    74  49  41 W10       30.11F
$$


CITY           SKY/WX    TMP DP  RH WIND       PRES   REMARKS
Terre Haute    CLOUDY    68  49  50 W8        30.10F
Evansville     CLOUDY    73  49  42 N8        30.10F
Indianapolis   PTSUNNY   70  48  45 W13       30.06F
Lafayette      LGT RAIN  56  52  86 N9        30.07R FOG
Madison        PTSUNNY   63  44  50 NW16G24   30.06F
Milwaukee      MOSUNNY   67  44  43 NW14G21   30.03S
$$






USA.gov is the U.S. government's official web portal to all federal, state and local government web resources and services.